Location: Nitra
(0.0000°N, 18.0833°E)
Time: 16:11:11
(UTC+02:00)

S-56A Canister/Altair - All Passes

Search period start: 30 March 2023 00:00
Search period end: 09 April 2023 00:00
Orbit: 639 x 2493 km, 38.9° (Epoch: 29 March)

Date Brightness Start Highest point End Pass type
(mag) Time Alt. Az. Time Alt. Az. Time Alt. Az.
30 Mar - 00:14:26 10° NNW 00:26:19 28° NNE 00:36:42 10° E visible
30 Mar - 02:19:19 10° NW 02:33:54 78° NE 02:44:23 10° SE visible
30 Mar - 04:28:51 10° WNW 04:39:07 30° SW 04:46:43 10° SSE visible
30 Mar - 13:05:37 10° S 13:08:48 17° SE 13:12:29 10° E daylight
30 Mar - 15:06:52 10° WSW 15:12:19 58° NW 15:20:20 10° NE daylight
30 Mar - 17:14:45 10° NW 17:18:33 14° NNW 17:23:00 10° N daylight
30 Mar - 23:41:10 10° NNW 23:52:24 25° NNE 00:02:40 10° E visible
31 Mar - 01:45:31 10° NW 02:00:19 70° NE 02:11:24 10° ESE night (unlit)
31 Mar - 03:54:15 10° WNW 04:05:55 37° SW 04:14:27 10° SSE visible
31 Mar - 12:34:21 10° SSE 12:36:04 12° SE 12:37:54 10° ESE daylight
31 Mar - 14:34:17 10° SW 14:39:28 71° NW 14:46:57 10° NE daylight
31 Mar - 16:41:17 10° WNW 16:45:12 15° NNW 16:49:55 10° N daylight
31 Mar - 23:08:03 10° NNW 23:18:27 22° NNE 23:28:20 10° ENE visible
01 Apr - 01:11:49 10° NW 01:26:39 62° NE 01:38:17 10° ESE night (unlit)
01 Apr - 03:19:48 10° WNW 03:32:39 45° SW 03:42:02 10° SSE visible
01 Apr - 14:01:45 10° SW 14:06:41 88° NW 14:13:36 10° NE daylight
01 Apr - 16:07:58 10° WNW 16:11:57 16° NNW 16:16:50 10° N daylight
01 Apr - 22:35:06 10° N 22:44:27 19° NNE 22:53:40 10° ENE visible
02 Apr - 00:38:14 10° NW 00:52:54 56° NE 01:05:02 10° ESE visible
02 Apr - 02:45:29 10° WNW 02:59:16 53° SW 03:09:28 10° SSE visible
02 Apr - 05:02:11 10° SW 05:04:48 11° SW 05:07:12 10° SSW visible
02 Apr - 13:29:17 10° SW 13:33:59 72° SE 13:40:17 10° NE daylight
02 Apr - 15:34:46 10° WNW 15:38:48 18° NNW 15:43:49 10° N daylight
02 Apr - 22:02:24 10° N 22:10:27 16° NNE 22:18:36 10° ENE visible
03 Apr - 00:04:44 10° NNW 00:19:06 50° NE 00:31:35 10° ESE visible
03 Apr - 02:11:18 10° WNW 02:25:48 62° SW 02:36:47 10° SE visible
03 Apr - 04:25:19 10° WSW 04:31:27 15° SW 04:36:43 10° S visible
03 Apr - 12:56:51 10° SW 13:01:20 53° SE 13:06:58 10° ENE daylight
03 Apr - 15:01:40 10° WNW 15:05:43 20° NNW 15:10:50 10° NNE daylight
03 Apr - 21:30:04 10° N 21:36:25 14° NNE 21:42:59 10° NE visible
03 Apr - 23:31:22 10° NNW 23:45:16 44° NE 23:57:58 10° ESE visible
04 Apr - 01:37:15 10° NW 01:52:14 70° SW 02:03:58 10° SE night (unlit)
04 Apr - 03:49:38 10° W 03:58:05 19° SW 04:05:04 10° S visible
04 Apr - 12:24:29 10° SSW 12:28:42 39° SE 12:33:40 10° ENE daylight
04 Apr - 14:28:39 10° W 14:32:43 23° NNW 14:37:52 10° NNE daylight
04 Apr - 20:58:33 10° NNE 21:02:24 11° NNE 21:06:21 10° NE visible
04 Apr - 22:58:07 10° NNW 23:11:25 39° NE 23:24:09 10° ESE visible
05 Apr - 01:03:21 10° NW 01:18:35 80° SW 01:31:01 10° SE night (unlit)
05 Apr - 03:14:24 10° W 03:24:40 24° SW 03:33:00 10° S visible
05 Apr - 11:52:11 10° SSW 11:56:04 28° SE 12:00:20 10° ENE daylight
05 Apr - 13:55:43 10° W 13:59:49 27° NW 14:04:58 10° NNE daylight
05 Apr - 22:25:01 10° NNW 22:37:33 34° NE 22:50:06 10° E visible
06 Apr - 00:29:35 10° NW 00:44:52 88° SW 00:57:57 10° SE visible
06 Apr - 02:39:30 10° W 02:51:11 29° SW 03:00:41 10° SSE visible
06 Apr - 11:19:56 10° S 11:23:23 21° SE 11:26:57 10° E daylight
06 Apr - 13:22:49 10° W 13:26:59 32° NW 13:32:05 10° NNE daylight
06 Apr - 21:52:03 10° NNW 22:03:40 30° NE 22:15:49 10° E visible
06 Apr - 23:55:57 10° NW 00:11:06 83° NE 00:24:43 10° SE visible
07 Apr - 02:04:49 10° WNW 02:17:38 35° SW 02:28:10 10° SSE night (unlit)
07 Apr - 10:47:49 10° S 10:50:39 16° SE 10:53:27 10° ESE daylight
07 Apr - 12:50:00 10° WSW 12:54:13 40° NW 12:59:15 10° NNE daylight
07 Apr - 21:19:15 10° NNW 21:29:50 26° NE 21:41:14 10° E visible
07 Apr - 23:22:28 10° NW 23:37:16 74° NE 23:51:20 10° SE visible
08 Apr - 01:30:23 10° WNW 01:44:00 41° SW 01:55:30 10° SSE night (unlit)
08 Apr - 10:15:57 10° SSE 10:17:51 12° SE 10:19:41 10° ESE daylight
08 Apr - 12:17:11 10° WSW 12:21:31 52° NW 12:26:26 10° NE daylight
08 Apr - 20:46:39 10° N 20:56:01 22° NE 21:06:21 10° E visible
08 Apr - 22:49:06 10° NW 23:03:27 66° NE 23:17:47 10° ESE visible
